| time (UTC) | temp F | wind direction | speed MPH | gust MPH | rain 1hr in | rain 24hr in | rain mn in | humidity % | barometer mb |
| 20260502163118 | 68 | 1 | 8.0 | 16.0 | 0.00 | 2.06 | 0.00 | 61 | 1019.9 |
| 20260502161528 | 68 | 326 | 5.0 | 13.0 | 0.00 | 2.06 | 0.00 | 65 | 1019.9 |
| 20260502160111 | 66 | 64 | 7.0 | 15.0 | 0.00 | 2.06 | 0.00 | 66 | 1019.8 |
| 20260502151551 | 64 | 75 | 2.0 | 15.0 | 0.00 | 2.08 | 0.00 | 75 | 1019.8 |
| 20260502123107 | 54 | 334 | 3.0 | 8.0 | 0.00 | 2.15 | 0.00 | 92 | 1018.2 |
| 20260502121536 | 54 | 26 | 2.0 | 7.0 | 0.00 | 2.15 | 0.00 | 92 | 1017.9 |
| 20260502114633 | 53 | 333 | 2.0 | 4.0 | 0.00 | 2.16 | 0.00 | 92 | 1017.9 |
| 20260502113025 | 53 | 354 | 1.0 | 5.0 | 0.00 | 2.16 | 0.00 | 92 | 1017.6 |
| 20260502111605 | 53 | 58 | 1.0 | 9.0 | 0.00 | 2.16 | 0.00 | 92 | 1017.3 |
| 20260502110034 | 53 | 49 | 2.0 | 7.0 | 0.00 | 2.16 | 0.00 | 91 | 1017.1 |
| 20260502104612 | 53 | 360 | 5.0 | 8.0 | 0.00 | 2.21 | 0.00 | 91 | 1016.9 |
| 20260502103043 | 54 | 315 | 3.0 | 8.0 | 0.00 | 2.21 | 0.00 | 91 | 1016.8 |
| 20260502101511 | 54 | 319 | 3.0 | 6.0 | 0.00 | 2.21 | 0.00 | 91 | 1016.6 |
| 20260502100108 | 54 | 330 | 2.0 | 6.0 | 0.00 | 2.21 | 0.00 | 90 | 1016.2 |
| 20260502091530 | 55 | 40 | 4.0 | 8.0 | 0.00 | 2.29 | 0.00 | 89 | 1015.8 |
| 20260502071529 | 55 | 1 | 3.0 | 10.0 | 0.00 | 2.59 | 0.00 | 91 | 1015.4 |
| 20260502070008 | 55 | 13 | 3.0 | 9.0 | 0.00 | 2.59 | 0.00 | 92 | 1015.4 |
| 20260502064613 | 55 | 11 | 7.0 | 16.0 | 0.00 | 2.60 | 0.00 | 92 | 1015.3 |
| 20260502063021 | 55 | 352 | 6.0 | 12.0 | 0.00 | 2.60 | 0.00 | 92 | 1015.1 |
| 20260502061604 | 56 | 343 | 4.0 | 14.0 | 0.00 | 2.60 | 0.00 | 92 | 1015.1 |
| 20260502060045 | 56 | 3 | 7.0 | 14.0 | 0.00 | 2.60 | 0.00 | 92 | 1014.9 |
| 20260502054513 | 56 | 49 | 8.0 | 15.0 | 0.00 | 2.86 | 0.00 | 93 | 1015.0 |
| 20260502053100 | 56 | 354 | 5.0 | 15.0 | 0.00 | 2.86 | 0.00 | 93 | 1015.0 |
| 20260502051532 | 56 | 60 | 9.0 | 18.0 | 0.00 | 2.86 | 0.00 | 93 | 1015.0 |
| 20260502050108 | 56 | 30 | 7.0 | 14.0 | 0.00 | 2.86 | 0.00 | 94 | 1015.1 |
| 20260502044540 | 56 | 39 | 7.0 | 15.0 | 0.00 | 2.86 | 2.86 | 94 | 1015.1 |
| 20260502043009 | 56 | 17 | 5.0 | 15.0 | 0.00 | 2.86 | 2.86 | 95 | 1015.0 |
| 20260502041600 | 56 | 53 | 5.0 | 12.0 | 0.01 | 2.86 | 2.86 | 95 | 1015.0 |
| 20260502040024 | 56 | 13 | 4.0 | 8.0 | 0.01 | 2.86 | 2.86 | 95 | 1015.0 |
| 20260502034603 | 56 | 31 | 6.0 | 15.0 | 0.01 | 2.86 | 2.86 | 95 | 1014.6 |
| 20260502033035 | 56 | 354 | 6.0 | 17.0 | 0.01 | 2.86 | 2.86 | 95 | 1014.5 |
| 20260502031508 | 56 | 2 | 8.0 | 15.0 | 0.02 | 2.85 | 2.85 | 96 | 1013.7 |
| 20260502030050 | 56 | 54 | 7.0 | 16.0 | 0.03 | 2.85 | 2.85 | 96 | 1013.4 |
| 20260502024521 | 56 | 6 | 7.0 | 16.0 | 0.04 | 2.85 | 2.85 | 96 | 1013.2 |
| 20260502023107 | 57 | 61 | 6.0 | 17.0 | 0.04 | 2.85 | 2.85 | 96 | 1013.0 |
| 20260502021538 | 57 | 227 | 5.0 | 15.0 | 0.04 | 2.83 | 2.83 | 96 | 1013.1 |
| 20260502020009 | 58 | 37 | 5.0 | 12.0 | 0.05 | 2.82 | 2.82 | 96 | 1013.1 |
| 20260502014556 | 58 | 333 | 7.0 | 13.0 | 0.04 | 2.81 | 2.81 | 96 | 1012.6 |
| 20260502013032 | 58 | 4 | 5.0 | 11.0 | 0.04 | 2.81 | 2.81 | 96 | 1012.1 |
| 20260502011610 | 58 | 18 | 7.0 | 12.0 | 0.04 | 2.79 | 2.79 | 96 | 1012.0 |
| 20260502010041 | 58 | 23 | 5.0 | 15.0 | 0.07 | 2.77 | 2.77 | 96 | 1012.1 |
| 20260502004521 | 58 | 307 | 6.0 | 13.0 | 0.11 | 2.77 | 2.77 | 96 | 1011.0 |
| 20260502003053 | 59 | 46 | 4.0 | 10.0 | 0.14 | 2.77 | 2.77 | 96 | 1010.9 |
| 20260502001520 | 59 | 34 | 5.0 | 13.0 | 0.14 | 2.75 | 2.75 | 96 | 1011.0 |
| 20260502000100 | 58 | 49 | 5.0 | 13.0 | 0.10 | 2.70 | 2.70 | 96 | 1011.2 |
| 20260501234527 | 59 | 61 | 7.0 | 20.0 | 0.06 | 2.66 | 2.66 | 96 | 1010.0 |
| 20260501233110 | 59 | 51 | 8.0 | 16.0 | 0.04 | 2.63 | 2.63 | 96 | 1009.8 |
| 20260501231538 | 59 | 1 | 7.0 | 14.0 | 0.02 | 2.61 | 2.61 | 96 | 1010.6 |
| 20260501230009 | 60 | 73 | 8.0 | 15.0 | 0.04 | 2.60 | 2.60 | 96 | 1010.2 |
| 20260501224544 | 60 | 36 | 7.0 | 17.0 | 0.14 | 2.60 | 2.60 | 97 | 1009.8 |
| 20260501223014 | 60 | 53 | 8.0 | 19.0 | 0.17 | 2.59 | 2.59 | 96 | 1009.7 |
| 20260501221555 | 60 | 16 | 8.0 | 16.0 | 0.18 | 2.59 | 2.59 | 97 | 1010.1 |
| 20260501220034 | 60 | 55 | 5.0 | 13.0 | 0.16 | 2.54 | 2.54 | 97 | 1010.3 |
| 20260501214607 | 61 | 15 | 6.0 | 13.0 | 0.10 | 2.47 | 2.47 | 97 | 1010.1 |
| 20260501213037 | 61 | 14 | 6.0 | 11.0 | 0.15 | 2.42 | 2.42 | 97 | 1010.4 |
| 20260501211510 | 61 | 49 | 4.0 | 10.0 | 0.28 | 2.40 | 2.40 | 97 | 1009.9 |
| 20260501210056 | 61 | 51 | 7.0 | 15.0 | 0.31 | 2.39 | 2.39 | 97 | 1008.7 |
| 20260501204538 | 61 | 44 | 9.0 | 18.0 | 0.34 | 2.36 | 2.36 | 97 | 1008.7 |
| 20260501203109 | 62 | 53 | 3.0 | 7.0 | 0.28 | 2.27 | 2.27 | 97 | 1009.6 |
| 20260501201544 | 62 | 37 | 2.0 | 8.0 | 0.11 | 2.10 | 2.10 | 97 | 1008.5 |
| 20260501200017 | 62 | 84 | 4.0 | 9.0 | 0.10 | 2.08 | 2.08 | 97 | 1008.5 |
| 20260501194557 | 62 | 13 | 3.0 | 10.0 | 0.41 | 2.02 | 2.02 | 96 | 1008.6 |
| 20260501193025 | 62 | 51 | 3.0 | 11.0 | 0.42 | 2.00 | 2.00 | 96 | 1008.3 |
| 20260501191503 | 62 | 45 | 5.0 | 13.0 | 0.65 | 1.99 | 1.99 | 96 | 1008.6 |
| 20260501190047 | 62 | 77 | 8.0 | 21.0 | 0.74 | 1.98 | 1.98 | 96 | 1008.1 |
| 20260501184528 | 62 | 258 | 2.0 | 9.0 | 0.39 | 1.60 | 1.60 | 96 | 1010.8 |
| 20260501183104 | 62 | 84 | 6.0 | 19.0 | 0.37 | 1.58 | 1.58 | 96 | 1007.8 |
| 20260501181522 | 62 | 72 | 3.0 | 10.0 | 0.13 | 1.33 | 1.33 | 96 | 1009.2 |
| 20260501180105 | 62 | 53 | 8.0 | 17.0 | 0.06 | 1.24 | 1.24 | 96 | 1008.3 |
| 20260501174642 | 62 | 18 | 3.0 | 11.0 | 0.03 | 1.21 | 1.21 | 96 | 1010.1 |
| 20260501173002 | 62 | 340 | 8.0 | 16.0 | 0.08 | 1.21 | 1.21 | 96 | 1009.3 |